Погода в Савве

Россия / Республика Мордовия     54°04′28″N   43°05′16″E
темп.,
°C
ветер,
м/с
пор.,
м/с
влажн.,
%
обл.,
%
осадки,
мм/ч
давл.,
гПа
погр.,
м
24 мая, вт
вт2400:00+3юз479199 0.0 1004112
03:00+3юз41089100 0.0 1004210
06:00+5зюз488239 0.0 1004271
09:00+10зсз465798 0.0 10041129
12:00+11зсз6942100 0.0 10051899
15:00+9сз6862100 0.0 10061285
18:00+6зсз4790100 1.1 1008903
21:00+2зсз259782 1.3 1010121
25 мая, ср
ср2500:00+1сз34965 0.0 101073
03:00−1ссз33965 0.0 101257
06:00+2сз34885 0.0 1013188
09:00+7сз456426 0.0 10131241
12:00+9ссз4552100 0.1 10141588
15:00+10зсз5651100 0.3 10142008
18:00+9зсз556464 0.2 10141197
21:00+4з33815 0.3 101537
26 мая, чт
чт2600:00+2зюз348865 0.0 101559
03:00+2юз358982 0.0 101577
06:00+5юз3682100 0.0 1014239
09:00+10зюз5770100 0.0 1013787
12:00+15юз6858100 0.0 10111725
15:00+18зюз584579 0.0 10092410
18:00+14ююз81377100 0.6 1008540
21:00+11ююз41093100 1.1 1007522
27 мая, пт
пт2700:00+11ю81594100 2.8 10031003
03:00+10юз71397100 3.8 1000887
06:00+10зюз71396100 1.8 1000810
09:00+14зюз7127769 2.0 10021145
12:00+11зюз8139066 1.9 1002841
15:00+14з912755 3.2 10031286
18:00+13з712805 0.8 10041170
21:00+9зюз4109216 0.8 1007243
28 мая, сб
сб2800:00+9юз51191100 0.0 1007250
03:00+8ююз5118895 0.0 1006241
06:00+10ююз71583100 0.0 1004514
09:00+11ююз81693100 2.2 1003926
12:00+12юз81491100 2.9 1003906
15:00+14зюз71180100 3.8 10041116
18:00+14зюз610805 0.7 10051021
21:00+10ююз498993 0.8 1008156